Today
| Time | Wind Dr | Wind Spd mph |
Wind Gust mph |
Hum In % |
Humid % |
TempI F |
Temp F |
Raw Bar in |
Tot Rain in |
UV | Solar W/sqm |
DailyRain in |
HourRain in |
24HrRain in |
RainRate in |
|---|---|---|---|---|---|---|---|---|---|---|---|---|---|---|---|
| 05/04/26 12:01:20 AM | 35 | 5.0 | 6.0 | 51 | 74 | 67.8 | 56.8 | 29.985 | 7.14 | 0.0 | 0 | 0.00 | 0.00 | 0.00 | 0.00 |
| 05/04/26 12:02:32 AM | 34 | 2.0 | 6.0 | 51 | 74 | 67.8 | 56.8 | 29.984 | 7.14 | 0.0 | 0 | 0.00 | 0.00 | 0.00 | 0.00 |
| 05/04/26 12:03:24 AM | 37 | 3.0 | 6.0 | 51 | 74 | 67.8 | 56.8 | 29.986 | 7.14 | 0.0 | 0 | 0.00 | 0.00 | 0.00 | 0.00 |
| 05/04/26 12:04:18 AM | 32 | 1.0 | 6.0 | 51 | 74 | 67.8 | 56.7 | 29.987 | 7.14 | 0.0 | 0 | 0.00 | 0.00 | 0.00 | 0.00 |
| 05/04/26 12:05:24 AM | 37 | 5.0 | 9.0 | 51 | 74 | 67.7 | 56.7 | 29.991 | 7.14 | 0.0 | 0 | 0.00 | 0.00 | 0.00 | 0.00 |
| 05/04/26 12:06:19 AM | 35 | 4.0 | 9.0 | 51 | 74 | 67.8 | 56.7 | 30.000 | 7.14 | 0.0 | 0 | 0.00 | 0.00 | 0.00 | 0.00 |
| 05/04/26 12:07:31 AM | 36 | 7.0 | 9.0 | 51 | 74 | 67.8 | 56.7 | 30.004 | 7.14 | 0.0 | 0 | 0.00 | 0.00 | 0.00 | 0.00 |
| 05/04/26 12:08:56 AM | 37 | 6.0 | 9.0 | 51 | 74 | 67.8 | 56.7 | 30.005 | 7.14 | 0.0 | 0 | 0.00 | 0.00 | 0.00 | 0.00 |
| 05/04/26 12:09:29 AM | 38 | 9.0 | 9.0 | 51 | 74 | 67.8 | 56.7 | 30.008 | 7.14 | 0.0 | 0 | 0.00 | 0.00 | 0.00 | 0.00 |
| 05/04/26 12:10:20 AM | 38 | 6.0 | 9.0 | 51 | 74 | 67.8 | 56.6 | 30.007 | 7.14 | 0.0 | 0 | 0.00 | 0.00 | 0.00 | 0.00 |
| 05/04/26 12:11:27 AM | 36 | 5.0 | 9.0 | 51 | 74 | 67.8 | 56.6 | 30.007 | 7.14 | 0.0 | 0 | 0.00 | 0.00 | 0.00 | 0.00 |
| 05/04/26 12:12:18 AM | 36 | 6.0 | 9.0 | 51 | 74 | 67.9 | 56.6 | 30.003 | 7.14 | 0.0 | 0 | 0.00 | 0.00 | 0.00 | 0.00 |
| 05/04/26 12:13:30 AM | 34 | 3.0 | 9.0 | 51 | 74 | 67.8 | 56.6 | 30.002 | 7.14 | 0.0 | 0 | 0.00 | 0.00 | 0.00 | 0.00 |
| 05/04/26 12:14:22 AM | 37 | 3.0 | 9.0 | 51 | 74 | 67.9 | 56.6 | 30.001 | 7.14 | 0.0 | 0 | 0.00 | 0.00 | 0.00 | 0.00 |
| 05/04/26 12:15:34 AM | 35 | 9.0 | 11.0 | 51 | 75 | 67.9 | 56.6 | 29.998 | 7.14 | 0.0 | 0 | 0.00 | 0.00 | 0.00 | 0.00 |
| 05/04/26 12:16:23 AM | 34 | 5.0 | 11.0 | 51 | 75 | 67.9 | 56.6 | 29.995 | 7.14 | 0.0 | 0 | 0.00 | 0.00 | 0.00 | 0.00 |
| 05/04/26 12:17:32 AM | 38 | 6.0 | 11.0 | 51 | 75 | 67.8 | 56.5 | 29.995 | 7.14 | 0.0 | 0 | 0.00 | 0.00 | 0.00 | 0.00 |
| 05/04/26 12:18:24 AM | 35 | 3.0 | 11.0 | 51 | 75 | 67.9 | 56.5 | 29.995 | 7.14 | 0.0 | 0 | 0.00 | 0.00 | 0.00 | 0.00 |
| 05/04/26 12:19:16 AM | 36 | 4.0 | 11.0 | 51 | 75 | 67.9 | 56.5 | 29.997 | 7.14 | 0.0 | 0 | 0.00 | 0.00 | 0.00 | 0.00 |
| 05/04/26 12:20:28 AM | 34 | 4.0 | 11.0 | 51 | 75 | 67.9 | 56.5 | 29.996 | 7.14 | 0.0 | 0 | 0.00 | 0.00 | 0.00 | 0.00 |
| 05/04/26 12:21:20 AM | 38 | 3.0 | 11.0 | 51 | 75 | 67.9 | 56.5 | 29.998 | 7.14 | 0.0 | 0 | 0.00 | 0.00 | 0.00 | 0.00 |
| 05/04/26 12:22:30 AM | 38 | 1.0 | 11.0 | 51 | 75 | 67.9 | 56.5 | 29.996 | 7.14 | 0.0 | 0 | 0.00 | 0.00 | 0.00 | 0.00 |
| 05/04/26 12:23:21 AM | 36 | 2.0 | 11.0 | 51 | 75 | 67.9 | 56.4 | 29.994 | 7.14 | 0.0 | 0 | 0.00 | 0.00 | 0.00 | 0.00 |
| 05/04/26 12:24:31 AM | 38 | 2.0 | 11.0 | 51 | 75 | 67.9 | 56.4 | 29.995 | 7.14 | 0.0 | 0 | 0.00 | 0.00 | 0.00 | 0.00 |
| 05/04/26 12:25:26 AM | 36 | 3.0 | 11.0 | 51 | 75 | 67.9 | 56.4 | 29.994 | 7.14 | 0.0 | 0 | 0.00 | 0.00 | 0.00 | 0.00 |
| 05/04/26 12:26:17 AM | 35 | 2.0 | 11.0 | 51 | 75 | 67.9 | 56.4 | 29.997 | 7.14 | 0.0 | 0 | 0.00 | 0.00 | 0.00 | 0.00 |
| 05/04/26 12:27:24 AM | 32 | 5.0 | 11.0 | 51 | 75 | 67.9 | 56.4 | 30.000 | 7.14 | 0.0 | 0 | 0.00 | 0.00 | 0.00 | 0.00 |
| 05/04/26 12:28:16 AM | 36 | 3.0 | 11.0 | 51 | 75 | 67.9 | 56.4 | 30.002 | 7.14 | 0.0 | 0 | 0.00 | 0.00 | 0.00 | 0.00 |
| 05/04/26 12:29:28 AM | 38 | 1.0 | 11.0 | 51 | 75 | 67.9 | 56.4 | 30.007 | 7.14 | 0.0 | 0 | 0.00 | 0.00 | 0.00 | 0.00 |
| 05/04/26 12:30:20 AM | 36 | 2.0 | 11.0 | 51 | 75 | 67.9 | 56.4 | 30.009 | 7.14 | 0.0 | 0 | 0.00 | 0.00 | 0.00 | 0.00 |
| 05/04/26 12:31:30 AM | 32 | 2.0 | 11.0 | 51 | 75 | 67.9 | 56.4 | 30.006 | 7.14 | 0.0 | 0 | 0.00 | 0.00 | 0.00 | 0.00 |
| 05/04/26 12:32:18 AM | 34 | 3.0 | 11.0 | 51 | 75 | 67.9 | 56.4 | 30.008 | 7.14 | 0.0 | 0 | 0.00 | 0.00 | 0.00 | 0.00 |
| 05/04/26 12:33:31 AM | 38 | 9.0 | 11.0 | 51 | 75 | 67.9 | 56.4 | 30.007 | 7.14 | 0.0 | 0 | 0.00 | 0.00 | 0.00 | 0.00 |
| 05/04/26 12:34:20 AM | 35 | 6.0 | 11.0 | 51 | 75 | 67.9 | 56.4 | 30.008 | 7.14 | 0.0 | 0 | 0.00 | 0.00 | 0.00 | 0.00 |
| 05/04/26 12:35:33 AM | 36 | 4.0 | 11.0 | 51 | 75 | 67.9 | 56.4 | 30.008 | 7.14 | 0.0 | 0 | 0.00 | 0.00 | 0.00 | 0.00 |
| 05/04/26 12:36:24 AM | 34 | 2.0 | 11.0 | 51 | 76 | 68.0 | 56.4 | 30.012 | 7.14 | 0.0 | 0 | 0.00 | 0.00 | 0.00 | 0.00 |
| 05/04/26 12:37:16 AM | 36 | 3.0 | 11.0 | 51 | 76 | 67.9 | 56.4 | 30.010 | 7.14 | 0.0 | 0 | 0.00 | 0.00 | 0.00 | 0.00 |
| 05/04/26 12:38:25 AM | 36 | 3.0 | 11.0 | 51 | 76 | 68.0 | 56.4 | 30.012 | 7.14 | 0.0 | 0 | 0.00 | 0.00 | 0.00 | 0.00 |
| 05/04/26 12:39:17 AM | 32 | 3.0 | 11.0 | 51 | 76 | 68.0 | 56.4 | 30.010 | 7.14 | 0.0 | 0 | 0.00 | 0.00 | 0.00 | 0.00 |
| 05/04/26 12:40:30 AM | 38 | 2.0 | 11.0 | 51 | 76 | 68.0 | 56.4 | 30.006 | 7.14 | 0.0 | 0 | 0.00 | 0.00 | 0.00 | 0.00 |
| 05/04/26 12:41:25 AM | 38 | 2.0 | 11.0 | 51 | 76 | 68.0 | 56.3 | 30.008 | 7.14 | 0.0 | 0 | 0.00 | 0.00 | 0.00 | 0.00 |
| 05/04/26 12:42:37 AM | 35 | 5.0 | 11.0 | 51 | 76 | 68.0 | 56.3 | 30.011 | 7.14 | 0.0 | 0 | 0.00 | 0.00 | 0.00 | 0.00 |
| 05/04/26 12:43:26 AM | 37 | 5.0 | 11.0 | 51 | 76 | 68.0 | 56.3 | 30.016 | 7.14 | 0.0 | 0 | 0.00 | 0.00 | 0.00 | 0.00 |
| 05/04/26 12:44:17 AM | 38 | 7.0 | 11.0 | 51 | 76 | 68.1 | 56.3 | 30.020 | 7.14 | 0.0 | 0 | 0.00 | 0.00 | 0.00 | 0.00 |
| 05/04/26 12:45:30 AM | 38 | 4.0 | 11.0 | 51 | 76 | 68.0 | 56.3 | 30.024 | 7.14 | 0.0 | 0 | 0.00 | 0.00 | 0.00 | 0.00 |
| 05/04/26 12:46:22 AM | 36 | 7.0 | 11.0 | 51 | 76 | 68.0 | 56.3 | 30.024 | 7.14 | 0.0 | 0 | 0.00 | 0.00 | 0.00 | 0.00 |
| 05/04/26 12:47:35 AM | 38 | 7.0 | 11.0 | 51 | 76 | 68.0 | 56.3 | 30.021 | 7.14 | 0.0 | 0 | 0.00 | 0.00 | 0.00 | 0.00 |
| 05/04/26 12:48:20 AM | 32 | 4.0 | 11.0 | 51 | 76 | 68.0 | 56.3 | 30.016 | 7.14 | 0.0 | 0 | 0.00 | 0.00 | 0.00 | 0.00 |
| 05/04/26 12:49:33 AM | 38 | 6.0 | 11.0 | 51 | 76 | 68.0 | 56.3 | 30.014 | 7.14 | 0.0 | 0 | 0.00 | 0.00 | 0.00 | 0.00 |
| 05/04/26 12:50:25 AM | 39 | 6.0 | 11.0 | 51 | 76 | 68.1 | 56.2 | 30.013 | 7.14 | 0.0 | 0 | 0.00 | 0.00 | 0.00 | 0.00 |
| 05/04/26 12:51:16 AM | 30 | 3.0 | 11.0 | 51 | 76 | 68.0 | 56.2 | 30.013 | 7.14 | 0.0 | 0 | 0.00 | 0.00 | 0.00 | 0.00 |
| 05/04/26 12:52:29 AM | 39 | 6.0 | 11.0 | 51 | 76 | 68.0 | 56.2 | 30.014 | 7.14 | 0.0 | 0 | 0.00 | 0.00 | 0.00 | 0.00 |
| 05/04/26 12:53:21 AM | 38 | 4.0 | 11.0 | 51 | 76 | 68.1 | 56.1 | 30.016 | 7.14 | 0.0 | 0 | 0.00 | 0.00 | 0.00 | 0.00 |
| 05/04/26 12:54:27 AM | 36 | 5.0 | 11.0 | 51 | 76 | 68.0 | 56.1 | 30.013 | 7.14 | 0.0 | 0 | 0.00 | 0.00 | 0.00 | 0.00 |
| 05/04/26 12:55:19 AM | 38 | 4.0 | 11.0 | 51 | 76 | 68.1 | 56.1 | 30.008 | 7.14 | 0.0 | 0 | 0.00 | 0.00 | 0.00 | 0.00 |
| 05/04/26 12:56:32 AM | 35 | 5.0 | 11.0 | 51 | 76 | 68.1 | 56.0 | 30.007 | 7.14 | 0.0 | 0 | 0.00 | 0.00 | 0.00 | 0.00 |
| 05/04/26 12:57:26 AM | 39 | 3.0 | 11.0 | 51 | 76 | 68.0 | 56.0 | 30.003 | 7.14 | 0.0 | 0 | 0.00 | 0.00 | 0.00 | 0.00 |
| 05/04/26 12:58:18 AM | 36 | 4.0 | 11.0 | 51 | 76 | 68.1 | 56.0 | 30.001 | 7.14 | 0.0 | 0 | 0.00 | 0.00 | 0.00 | 0.00 |
| 05/04/26 12:59:28 AM | 36 | 4.0 | 11.0 | 51 | 76 | 68.0 | 56.0 | 30.001 | 7.14 | 0.0 | 0 | 0.00 | 0.00 | 0.00 | 0.00 |
| 05/04/26 1:00:19 AM | 34 | 3.0 | 11.0 | 51 | 76 | 68.0 | 56.0 | 30.002 | 7.14 | 0.0 | 0 | 0.00 | 0.00 | 0.00 | 0.00 |
| 05/04/26 1:01:32 AM | 38 | 4.0 | 11.0 | 51 | 76 | 68.1 | 56.0 | 30.006 | 7.14 | 0.0 | 0 | 0.00 | 0.00 | 0.00 | 0.00 |
| 05/04/26 1:02:24 AM | 37 | 4.0 | 11.0 | 51 | 76 | 68.1 | 56.0 | 30.004 | 7.14 | 0.0 | 0 | 0.00 | 0.00 | 0.00 | 0.00 |
| 05/04/26 1:03:36 AM | 35 | 7.0 | 11.0 | 51 | 76 | 68.1 | 55.9 | 30.002 | 7.14 | 0.0 | 0 | 0.00 | 0.00 | 0.00 | 0.00 |
| 05/04/26 1:04:22 AM | 38 | 5.0 | 11.0 | 51 | 76 | 68.1 | 55.9 | 30.000 | 7.14 | 0.0 | 0 | 0.00 | 0.00 | 0.00 | 0.00 |
| 05/04/26 1:05:35 AM | 32 | 3.0 | 11.0 | 51 | 76 | 68.1 | 55.9 | 29.998 | 7.14 | 0.0 | 0 | 0.00 | 0.00 | 0.00 | 0.00 |
| 05/04/26 1:06:27 AM | 32 | 6.0 | 11.0 | 51 | 76 | 68.0 | 55.9 | 29.997 | 7.14 | 0.0 | 0 | 0.00 | 0.00 | 0.00 | 0.00 |
| 05/04/26 1:07:21 AM | 37 | 4.0 | 11.0 | 51 | 76 | 68.1 | 55.8 | 29.995 | 7.14 | 0.0 | 0 | 0.00 | 0.00 | 0.00 | 0.00 |
| 05/04/26 1:08:31 AM | 34 | 6.0 | 11.0 | 51 | 76 | 68.1 | 55.8 | 29.998 | 7.14 | 0.0 | 0 | 0.00 | 0.00 | 0.00 | 0.00 |
| 05/04/26 1:09:23 AM | 38 | 5.0 | 11.0 | 51 | 76 | 68.1 | 55.8 | 30.000 | 7.14 | 0.0 | 0 | 0.00 | 0.00 | 0.00 | 0.00 |
| 05/04/26 1:10:32 AM | 36 | 7.0 | 11.0 | 51 | 76 | 68.1 | 55.8 | 30.003 | 7.14 | 0.0 | 0 | 0.00 | 0.00 | 0.00 | 0.00 |
| 05/04/26 1:11:24 AM | 34 | 5.0 | 11.0 | 51 | 76 | 68.1 | 55.8 | 30.004 | 7.14 | 0.0 | 0 | 0.00 | 0.00 | 0.00 | 0.00 |
| 05/04/26 1:12:37 AM | 38 | 3.0 | 11.0 | 51 | 76 | 68.1 | 55.7 | 30.004 | 7.14 | 0.0 | 0 | 0.00 | 0.00 | 0.00 | 0.00 |
| 05/04/26 1:13:28 AM | 38 | 7.0 | 11.0 | 51 | 76 | 68.1 | 55.7 | 30.006 | 7.14 | 0.0 | 0 | 0.00 | 0.00 | 0.00 | 0.00 |
| 05/04/26 1:14:20 AM | 38 | 6.0 | 11.0 | 51 | 76 | 68.1 | 55.7 | 30.006 | 7.14 | 0.0 | 0 | 0.00 | 0.00 | 0.00 | 0.00 |
| 05/04/26 1:15:30 AM | 34 | 5.0 | 11.0 | 51 | 76 | 68.1 | 55.7 | 30.005 | 7.14 | 0.0 | 0 | 0.00 | 0.00 | 0.00 | 0.00 |
| 05/04/26 1:16:18 AM | 35 | 5.0 | 11.0 | 51 | 76 | 68.1 | 55.7 | 30.007 | 7.14 | 0.0 | 0 | 0.00 | 0.00 | 0.00 | 0.00 |
| 05/04/26 1:17:31 AM | 35 | 3.0 | 11.0 | 51 | 76 | 68.1 | 55.7 | 30.003 | 7.14 | 0.0 | 0 | 0.00 | 0.00 | 0.00 | 0.00 |
| 05/04/26 1:18:23 AM | 32 | 2.0 | 11.0 | 51 | 76 | 68.1 | 55.7 | 29.999 | 7.14 | 0.0 | 0 | 0.00 | 0.00 | 0.00 | 0.00 |
| 05/04/26 1:19:36 AM | 35 | 1.0 | 11.0 | 51 | 76 | 68.1 | 55.7 | 29.999 | 7.14 | 0.0 | 0 | 0.00 | 0.00 | 0.00 | 0.00 |
| 05/04/26 1:20:24 AM | 35 | 3.0 | 11.0 | 51 | 76 | 68.1 | 55.7 | 29.997 | 7.14 | 0.0 | 0 | 0.00 | 0.00 | 0.00 | 0.00 |
| 05/04/26 1:21:16 AM | 34 | 3.0 | 11.0 | 51 | 76 | 68.1 | 55.7 | 29.997 | 7.14 | 0.0 | 0 | 0.00 | 0.00 | 0.00 | 0.00 |
| 05/04/26 1:22:29 AM | 36 | 3.0 | 11.0 | 51 | 76 | 68.1 | 55.7 | 29.998 | 7.14 | 0.0 | 0 | 0.00 | 0.00 | 0.00 | 0.00 |
| 05/04/26 1:23:20 AM | 35 | 3.0 | 11.0 | 51 | 76 | 68.1 | 55.6 | 29.998 | 7.14 | 0.0 | 0 | 0.00 | 0.00 | 0.00 | 0.00 |
| 05/04/26 1:24:33 AM | 36 | 4.0 | 11.0 | 51 | 76 | 68.1 | 55.7 | 29.999 | 7.14 | 0.0 | 0 | 0.00 | 0.00 | 0.00 | 0.00 |
| 05/04/26 1:25:25 AM | 38 | 6.0 | 11.0 | 51 | 76 | 68.1 | 55.7 | 29.999 | 7.14 | 0.0 | 0 | 0.00 | 0.00 | 0.00 | 0.00 |
| 05/04/26 1:26:34 AM | 38 | 4.0 | 11.0 | 51 | 76 | 68.1 | 55.6 | 29.998 | 7.14 | 0.0 | 0 | 0.00 | 0.00 | 0.00 | 0.00 |
| 05/04/26 1:27:26 AM | 34 | 4.0 | 11.0 | 51 | 76 | 68.1 | 55.6 | 29.997 | 7.14 | 0.0 | 0 | 0.00 | 0.00 | 0.00 | 0.00 |
| 05/04/26 1:28:18 AM | 38 | 3.0 | 11.0 | 51 | 76 | 68.1 | 55.6 | 29.997 | 7.14 | 0.0 | 0 | 0.00 | 0.00 | 0.00 | 0.00 |
| 05/04/26 1:29:31 AM | 32 | 2.0 | 11.0 | 51 | 76 | 68.1 | 55.6 | 29.995 | 7.14 | 0.0 | 0 | 0.00 | 0.00 | 0.00 | 0.00 |
| 05/04/26 1:30:22 AM | 32 | 3.0 | 11.0 | 51 | 76 | 68.1 | 55.6 | 29.995 | 7.14 | 0.0 | 0 | 0.00 | 0.00 | 0.00 | 0.00 |
| 05/04/26 1:31:32 AM | 36 | 2.0 | 11.0 | 51 | 76 | 68.1 | 55.6 | 29.995 | 7.14 | 0.0 | 0 | 0.00 | 0.00 | 0.00 | 0.00 |
| 05/04/26 1:32:21 AM | 35 | 6.0 | 11.0 | 51 | 76 | 68.1 | 55.6 | 29.995 | 7.14 | 0.0 | 0 | 0.00 | 0.00 | 0.00 | 0.00 |
| 05/04/26 1:33:33 AM | 37 | 4.0 | 11.0 | 51 | 76 | 68.1 | 55.6 | 29.998 | 7.14 | 0.0 | 0 | 0.00 | 0.00 | 0.00 | 0.00 |
| 05/04/26 1:34:28 AM | 36 | 7.0 | 11.0 | 51 | 76 | 68.1 | 55.6 | 29.998 | 7.14 | 0.0 | 0 | 0.00 | 0.00 | 0.00 | 0.00 |
| 05/04/26 1:35:20 AM | 34 | 6.0 | 11.0 | 51 | 76 | 68.1 | 55.6 | 29.998 | 7.14 | 0.0 | 0 | 0.00 | 0.00 | 0.00 | 0.00 |
| 05/04/26 1:36:27 AM | 36 | 6.0 | 11.0 | 51 | 76 | 68.1 | 55.6 | 29.995 | 7.14 | 0.0 | 0 | 0.00 | 0.00 | 0.00 | 0.00 |
| 05/04/26 1:37:18 AM | 36 | 4.0 | 11.0 | 51 | 76 | 68.1 | 55.6 | 29.990 | 7.14 | 0.0 | 0 | 0.00 | 0.00 | 0.00 | 0.00 |
| 05/04/26 1:38:31 AM | 38 | 3.0 | 11.0 | 51 | 76 | 68.1 | 55.5 | 29.988 | 7.14 | 0.0 | 0 | 0.00 | 0.00 | 0.00 | 0.00 |
| 05/04/26 1:39:23 AM | 35 | 3.0 | 11.0 | 51 | 76 | 68.1 | 55.5 | 29.988 | 7.14 | 0.0 | 0 | 0.00 | 0.00 | 0.00 | 0.00 |
| 05/04/26 1:40:36 AM | 38 | 7.0 | 11.0 | 51 | 76 | 68.1 | 55.5 | 29.983 | 7.14 | 0.0 | 0 | 0.00 | 0.00 | 0.00 | 0.00 |
| 05/04/26 1:41:27 AM | 38 | 5.0 | 11.0 | 51 | 76 | 68.1 | 55.5 | 29.982 | 7.14 | 0.0 | 0 | 0.00 | 0.00 | 0.00 | 0.00 |
| 05/04/26 1:42:34 AM | 35 | 3.0 | 11.0 | 51 | 76 | 68.1 | 55.5 | 29.982 | 7.14 | 0.0 | 0 | 0.00 | 0.00 | 0.00 | 0.00 |
| 05/04/26 1:43:26 AM | 38 | 3.0 | 11.0 | 51 | 76 | 68.2 | 55.5 | 29.987 | 7.14 | 0.0 | 0 | 0.00 | 0.00 | 0.00 | 0.00 |
| 05/04/26 1:44:20 AM | 36 | 4.0 | 11.0 | 51 | 76 | 68.1 | 55.5 | 29.985 | 7.14 | 0.0 | 0 | 0.00 | 0.00 | 0.00 | 0.00 |
| 05/04/26 1:45:33 AM | 36 | 6.0 | 11.0 | 51 | 76 | 68.1 | 55.4 | 29.984 | 7.14 | 0.0 | 0 | 0.00 | 0.00 | 0.00 | 0.00 |
| 05/04/26 1:46:25 AM | 35 | 4.0 | 11.0 | 51 | 76 | 68.1 | 55.4 | 29.982 | 7.14 | 0.0 | 0 | 0.00 | 0.00 | 0.00 | 0.00 |
| 05/04/26 1:47:32 AM | 35 | 3.0 | 11.0 | 51 | 76 | 68.1 | 55.4 | 29.983 | 7.14 | 0.0 | 0 | 0.00 | 0.00 | 0.00 | 0.00 |
| 05/04/26 1:48:23 AM | 37 | 1.0 | 11.0 | 51 | 76 | 68.1 | 55.4 | 29.982 | 7.14 | 0.0 | 0 | 0.00 | 0.00 | 0.00 | 0.00 |
| 05/04/26 1:49:36 AM | 36 | 3.0 | 11.0 | 51 | 76 | 68.1 | 55.4 | 29.985 | 7.14 | 0.0 | 0 | 0.00 | 0.00 | 0.00 | 0.00 |
| 05/04/26 1:50:28 AM | 32 | 2.0 | 11.0 | 51 | 76 | 68.1 | 55.4 | 29.982 | 7.14 | 0.0 | 0 | 0.00 | 0.00 | 0.00 | 0.00 |
| 05/04/26 1:51:19 AM | 34 | 4.0 | 11.0 | 51 | 76 | 68.2 | 55.4 | 29.983 | 7.14 | 0.0 | 0 | 0.00 | 0.00 | 0.00 | 0.00 |
| 05/04/26 1:52:29 AM | 38 | 3.0 | 11.0 | 51 | 76 | 68.1 | 55.4 | 29.979 | 7.14 | 0.0 | 0 | 0.00 | 0.00 | 0.00 | 0.00 |
| 05/04/26 1:53:21 AM | 38 | 2.0 | 11.0 | 51 | 76 | 68.2 | 55.4 | 29.977 | 7.14 | 0.0 | 0 | 0.00 | 0.00 | 0.00 | 0.00 |
| 05/04/26 1:54:34 AM | 35 | 3.0 | 11.0 | 51 | 76 | 68.1 | 55.3 | 29.974 | 7.14 | 0.0 | 0 | 0.00 | 0.00 | 0.00 | 0.00 |
| 05/04/26 1:55:25 AM | 36 | 2.0 | 11.0 | 51 | 76 | 68.1 | 55.3 | 29.977 | 7.14 | 0.0 | 0 | 0.00 | 0.00 | 0.00 | 0.00 |
| 05/04/26 1:56:20 AM | 34 | 3.0 | 11.0 | 51 | 76 | 68.1 | 55.3 | 29.976 | 7.14 | 0.0 | 0 | 0.00 | 0.00 | 0.00 | 0.00 |
| 05/04/26 1:57:30 AM | 37 | 3.0 | 11.0 | 51 | 76 | 68.1 | 55.3 | 29.978 | 7.14 | 0.0 | 0 | 0.00 | 0.00 | 0.00 | 0.00 |
| 05/04/26 1:58:18 AM | 35 | 4.0 | 11.0 | 51 | 76 | 68.2 | 55.3 | 29.981 | 7.14 | 0.0 | 0 | 0.00 | 0.00 | 0.00 | 0.00 |
| 05/04/26 1:59:31 AM | 35 | 4.0 | 11.0 | 51 | 76 | 68.1 | 55.3 | 29.983 | 7.14 | 0.0 | 0 | 0.00 | 0.00 | 0.00 | 0.00 |
| 05/04/26 2:00:26 AM | 36 | 3.0 | 11.0 | 51 | 76 | 68.2 | 55.3 | 29.983 | 7.14 | 0.0 | 0 | 0.00 | 0.00 | 0.00 | 0.00 |
| 05/04/26 2:01:18 AM | 37 | 4.0 | 11.0 | 51 | 76 | 68.1 | 55.3 | 29.985 | 7.14 | 0.0 | 0 | 0.00 | 0.00 | 0.00 | 0.00 |
| 05/04/26 2:02:30 AM | 32 | 3.0 | 11.0 | 51 | 76 | 68.2 | 55.3 | 29.980 | 7.14 | 0.0 | 0 | 0.00 | 0.00 | 0.00 | 0.00 |
| 05/04/26 2:03:19 AM | 34 | 4.0 | 11.0 | 51 | 76 | 68.2 | 55.3 | 29.978 | 7.14 | 0.0 | 0 | 0.00 | 0.00 | 0.00 | 0.00 |
| 05/04/26 2:04:32 AM | 36 | 4.0 | 11.0 | 51 | 76 | 68.2 | 55.3 | 29.977 | 7.14 | 0.0 | 0 | 0.00 | 0.00 | 0.00 | 0.00 |
| 05/04/26 2:05:24 AM | 32 | 3.0 | 11.0 | 51 | 76 | 68.2 | 55.3 | 29.976 | 7.14 | 0.0 | 0 | 0.00 | 0.00 | 0.00 | 0.00 |
| 05/04/26 2:06:36 AM | 39 | 4.0 | 11.0 | 51 | 76 | 68.2 | 55.2 | 29.976 | 7.14 | 0.0 | 0 | 0.00 | 0.00 | 0.00 | 0.00 |
| 05/04/26 2:07:28 AM | 30 | 5.0 | 11.0 | 51 | 76 | 68.2 | 55.2 | 29.974 | 7.14 | 0.0 | 0 | 0.00 | 0.00 | 0.00 | 0.00 |
| 05/04/26 2:08:47 AM | 36 | 4.0 | 11.0 | 51 | 76 | 68.2 | 55.2 | 29.974 | 7.14 | 0.0 | 0 | 0.00 | 0.00 | 0.00 | 0.00 |
| 05/04/26 2:09:17 AM | 38 | 5.0 | 11.0 | 51 | 76 | 68.2 | 55.2 | 29.976 | 7.14 | 0.0 | 0 | 0.00 | 0.00 | 0.00 | 0.00 |
| 05/04/26 2:10:30 AM | 35 | 3.0 | 11.0 | 51 | 76 | 68.2 | 55.1 | 29.974 | 7.14 | 0.0 | 0 | 0.00 | 0.00 | 0.00 | 0.00 |
| 05/04/26 2:11:22 AM | 35 | 3.0 | 11.0 | 51 | 76 | 68.1 | 55.1 | 29.976 | 7.14 | 0.0 | 0 | 0.00 | 0.00 | 0.00 | 0.00 |
| 05/04/26 2:12:35 AM | 37 | 3.0 | 11.0 | 51 | 76 | 68.2 | 55.1 | 29.976 | 7.14 | 0.0 | 0 | 0.00 | 0.00 | 0.00 | 0.00 |
| 05/04/26 2:13:26 AM | 34 | 3.0 | 11.0 | 51 | 76 | 68.2 | 55.1 | 29.974 | 7.14 | 0.0 | 0 | 0.00 | 0.00 | 0.00 | 0.00 |
| 05/04/26 2:14:33 AM | 36 | 3.0 | 11.0 | 51 | 76 | 68.2 | 55.1 | 29.977 | 7.14 | 0.0 | 0 | 0.00 | 0.00 | 0.00 | 0.00 |
| 05/04/26 2:15:25 AM | 35 | 3.0 | 11.0 | 51 | 76 | 68.2 | 55.0 | 29.977 | 7.14 | 0.0 | 0 | 0.00 | 0.00 | 0.00 | 0.00 |
| 05/04/26 2:16:16 AM | 36 | 2.0 | 11.0 | 51 | 76 | 68.1 | 55.0 | 29.973 | 7.14 | 0.0 | 0 | 0.00 | 0.00 | 0.00 | 0.00 |
| 05/04/26 2:17:29 AM | 36 | 2.0 | 11.0 | 51 | 76 | 68.2 | 55.0 | 29.976 | 7.14 | 0.0 | 0 | 0.00 | 0.00 | 0.00 | 0.00 |
| 05/04/26 2:18:21 AM | 36 | 3.0 | 11.0 | 51 | 76 | 68.2 | 55.0 | 29.975 | 7.14 | 0.0 | 0 | 0.00 | 0.00 | 0.00 | 0.00 |
| 05/04/26 2:19:28 AM | 35 | 3.0 | 11.0 | 51 | 76 | 68.1 | 55.0 | 29.976 | 7.14 | 0.0 | 0 | 0.00 | 0.00 | 0.00 | 0.00 |
| 05/04/26 2:20:19 AM | 34 | 1.0 | 11.0 | 51 | 76 | 68.2 | 54.9 | 29.975 | 7.14 | 0.0 | 0 | 0.00 | 0.00 | 0.00 | 0.00 |
| 05/04/26 2:21:32 AM | 32 | 3.0 | 11.0 | 51 | 76 | 68.2 | 54.9 | 29.977 | 7.14 | 0.0 | 0 | 0.00 | 0.00 | 0.00 | 0.00 |
| 05/04/26 2:22:24 AM | 38 | 2.0 | 11.0 | 51 | 76 | 68.2 | 54.9 | 29.977 | 7.14 | 0.0 | 0 | 0.00 | 0.00 | 0.00 | 0.00 |
| 05/04/26 2:23:37 AM | 34 | 2.0 | 11.0 | 51 | 76 | 68.2 | 54.9 | 29.978 | 7.14 | 0.0 | 0 | 0.00 | 0.00 | 0.00 | 0.00 |
| 05/04/26 2:24:25 AM | 36 | 2.0 | 11.0 | 51 | 76 | 68.1 | 54.9 | 29.976 | 7.14 | 0.0 | 0 | 0.00 | 0.00 | 0.00 | 0.00 |
| 05/04/26 2:25:35 AM | 36 | 3.0 | 11.0 | 51 | 76 | 68.2 | 54.9 | 29.974 | 7.14 | 0.0 | 0 | 0.00 | 0.00 | 0.00 | 0.00 |
| 05/04/26 2:26:27 AM | 36 | 3.0 | 11.0 | 51 | 76 | 68.2 | 54.8 | 29.976 | 7.14 | 0.0 | 0 | 0.00 | 0.00 | 0.00 | 0.00 |
| 05/04/26 2:27:22 AM | 36 | 3.0 | 11.0 | 51 | 76 | 68.1 | 54.8 | 29.976 | 7.14 | 0.0 | 0 | 0.00 | 0.00 | 0.00 | 0.00 |
| 05/04/26 2:28:32 AM | 38 | 3.0 | 11.0 | 51 | 76 | 68.2 | 54.8 | 29.974 | 7.14 | 0.0 | 0 | 0.00 | 0.00 | 0.00 | 0.00 |
| 05/04/26 2:29:23 AM | 36 | 3.0 | 11.0 | 51 | 77 | 68.2 | 54.9 | 29.974 | 7.14 | 0.0 | 0 | 0.00 | 0.00 | 0.00 | 0.00 |
| 05/04/26 2:30:33 AM | 35 | 2.0 | 11.0 | 51 | 77 | 68.1 | 54.8 | 29.973 | 7.14 | 0.0 | 0 | 0.00 | 0.00 | 0.00 | 0.00 |
| 05/04/26 2:31:25 AM | 38 | 2.0 | 11.0 | 51 | 77 | 68.1 | 54.8 | 29.971 | 7.14 | 0.0 | 0 | 0.00 | 0.00 | 0.00 | 0.00 |
| 05/04/26 2:32:35 AM | 36 | 1.0 | 11.0 | 51 | 77 | 68.2 | 54.8 | 29.971 | 7.14 | 0.0 | 0 | 0.00 | 0.00 | 0.00 | 0.00 |
| 05/04/26 2:33:26 AM | 38 | 1.0 | 11.0 | 51 | 77 | 68.1 | 54.8 | 29.970 | 7.14 | 0.0 | 0 | 0.00 | 0.00 | 0.00 | 0.00 |
| 05/04/26 2:34:21 AM | 34 | 2.0 | 11.0 | 51 | 77 | 68.1 | 54.8 | 29.970 | 7.14 | 0.0 | 0 | 0.00 | 0.00 | 0.00 | 0.00 |
| 05/04/26 2:35:28 AM | 38 | 2.0 | 11.0 | 51 | 77 | 68.1 | 54.8 | 29.969 | 7.14 | 0.0 | 0 | 0.00 | 0.00 | 0.00 | 0.00 |
| 05/04/26 2:36:19 AM | 38 | 2.0 | 11.0 | 51 | 77 | 68.1 | 54.8 | 29.970 | 7.14 | 0.0 | 0 | 0.00 | 0.00 | 0.00 | 0.00 |
| 05/04/26 2:37:32 AM | 36 | 3.0 | 11.0 | 51 | 77 | 68.2 | 54.8 | 29.968 | 7.14 | 0.0 | 0 | 0.00 | 0.00 | 0.00 | 0.00 |
| 05/04/26 2:38:24 AM | 36 | 1.0 | 11.0 | 51 | 77 | 68.1 | 54.8 | 29.969 | 7.14 | 0.0 | 0 | 0.00 | 0.00 | 0.00 | 0.00 |
| 05/04/26 2:39:34 AM | 37 | 2.0 | 11.0 | 51 | 77 | 68.1 | 54.8 | 29.972 | 7.14 | 0.0 | 0 | 0.00 | 0.00 | 0.00 | 0.00 |
| 05/04/26 2:40:28 AM | 36 | 4.0 | 11.0 | 51 | 77 | 68.1 | 54.8 | 29.971 | 7.14 | 0.0 | 0 | 0.00 | 0.00 | 0.00 | 0.00 |
| 05/04/26 2:41:35 AM | 34 | 3.0 | 11.0 | 51 | 77 | 68.1 | 54.8 | 29.970 | 7.14 | 0.0 | 0 | 0.00 | 0.00 | 0.00 | 0.00 |
| 05/04/26 2:42:30 AM | 35 | 2.0 | 11.0 | 51 | 77 | 68.1 | 54.8 | 29.970 | 7.14 | 0.0 | 0 | 0.00 | 0.00 | 0.00 | 0.00 |
| 05/04/26 2:43:19 AM | 38 | 3.0 | 11.0 | 51 | 77 | 68.1 | 54.8 | 29.970 | 7.14 | 0.0 | 0 | 0.00 | 0.00 | 0.00 | 0.00 |
| 05/04/26 2:44:32 AM | 35 | 2.0 | 11.0 | 51 | 77 | 68.1 | 54.7 | 29.972 | 7.14 | 0.0 | 0 | 0.00 | 0.00 | 0.00 | 0.00 |
| 05/04/26 2:45:47 AM | 32 | 2.0 | 11.0 | 51 | 77 | 68.1 | 54.7 | 29.972 | 7.14 | 0.0 | 0 | 0.00 | 0.00 | 0.00 | 0.00 |
| 05/04/26 2:46:18 AM | 32 | 1.0 | 11.0 | 51 | 77 | 68.1 | 54.8 | 29.970 | 7.14 | 0.0 | 0 | 0.00 | 0.00 | 0.00 | 0.00 |
| 05/04/26 2:47:25 AM | 38 | 1.0 | 11.0 | 51 | 77 | 68.1 | 54.7 | 29.972 | 7.14 | 0.0 | 0 | 0.00 | 0.00 | 0.00 | 0.00 |
| 05/04/26 2:48:19 AM | 37 | 3.0 | 11.0 | 51 | 77 | 68.1 | 54.7 | 29.972 | 7.14 | 0.0 | 0 | 0.00 | 0.00 | 0.00 | 0.00 |
| 05/04/26 2:49:32 AM | 36 | 1.0 | 11.0 | 51 | 77 | 68.1 | 54.7 | 29.972 | 7.14 | 0.0 | 0 | 0.00 | 0.00 | 0.00 | 0.00 |
| 05/04/26 2:50:24 AM | 36 | 2.0 | 11.0 | 51 | 77 | 68.1 | 54.7 | 29.972 | 7.14 | 0.0 | 0 | 0.00 | 0.00 | 0.00 | 0.00 |
| 05/04/26 2:51:37 AM | 36 | 0.0 | 11.0 | 51 | 77 | 68.1 | 54.7 | 29.972 | 7.14 | 0.0 | 0 | 0.00 | 0.00 | 0.00 | 0.00 |
| 05/04/26 2:52:25 AM | 32 | 0.0 | 11.0 | 51 | 77 | 68.1 | 54.7 | 29.969 | 7.14 | 0.0 | 0 | 0.00 | 0.00 | 0.00 | 0.00 |
| 05/04/26 2:53:35 AM | 34 | 0.0 | 11.0 | 51 | 77 | 68.1 | 54.7 | 29.970 | 7.14 | 0.0 | 0 | 0.00 | 0.00 | 0.00 | 0.00 |
| 05/04/26 2:54:27 AM | 38 | 0.0 | 11.0 | 51 | 77 | 68.1 | 54.6 | 29.969 | 7.14 | 0.0 | 0 | 0.00 | 0.00 | 0.00 | 0.00 |
| 05/04/26 2:55:19 AM | 37 | 0.0 | 11.0 | 51 | 77 | 68.1 | 54.7 | 29.967 | 7.14 | 0.0 | 0 | 0.00 | 0.00 | 0.00 | 0.00 |
| 05/04/26 2:56:31 AM | 36 | 0.0 | 11.0 | 51 | 77 | 68.1 | 54.6 | 29.967 | 7.14 | 0.0 | 0 | 0.00 | 0.00 | 0.00 | 0.00 |
| 05/04/26 2:57:17 AM | 37 | 0.0 | 11.0 | 51 | 77 | 68.1 | 54.6 | 29.963 | 7.14 | 0.0 | 0 | 0.00 | 0.00 | 0.00 | 0.00 |
| 05/04/26 2:58:30 AM | 36 | 0.0 | 11.0 | 51 | 77 | 68.1 | 54.7 | 29.963 | 7.14 | 0.0 | 0 | 0.00 | 0.00 | 0.00 | 0.00 |
| 05/04/26 2:59:21 AM | 38 | 0.0 | 11.0 | 51 | 77 | 68.1 | 54.6 | 29.968 | 7.14 | 0.0 | 0 | 0.00 | 0.00 | 0.00 | 0.00 |
| 05/04/26 3:00:55 AM | 34 | 1.0 | 11.0 | 51 | 77 | 68.1 | 54.6 | 29.968 | 7.14 | 0.0 | 0 | 0.00 | 0.00 | 0.00 | 0.00 |
| 05/04/26 3:01:26 AM | 38 | 0.0 | 11.0 | 51 | 77 | 68.1 | 54.6 | 29.966 | 7.14 | 0.0 | 0 | 0.00 | 0.00 | 0.00 | 0.00 |
| 05/04/26 3:02:18 AM | 38 | 1.0 | 11.0 | 51 | 77 | 68.1 | 54.6 | 29.968 | 7.14 | 0.0 | 0 | 0.00 | 0.00 | 0.00 | 0.00 |
| 05/04/26 3:03:25 AM | 37 | 0.0 | 11.0 | 51 | 77 | 68.1 | 54.6 | 29.967 | 7.14 | 0.0 | 0 | 0.00 | 0.00 | 0.00 | 0.00 |
| 05/04/26 3:04:19 AM | 38 | 1.0 | 11.0 | 51 | 77 | 68.1 | 54.6 | 29.966 | 7.14 | 0.0 | 0 | 0.00 | 0.00 | 0.00 | 0.00 |
| 05/04/26 3:05:32 AM | 35 | 0.0 | 11.0 | 51 | 77 | 68.1 | 54.6 | 29.967 | 7.14 | 0.0 | 0 | 0.00 | 0.00 | 0.00 | 0.00 |
| 05/04/26 3:06:24 AM | 35 | 0.0 | 11.0 | 51 | 77 | 68.1 | 54.6 | 29.966 | 7.14 | 0.0 | 0 | 0.00 | 0.00 | 0.00 | 0.00 |
| 05/04/26 3:07:37 AM | 38 | 0.0 | 11.0 | 51 | 77 | 68.1 | 54.6 | 29.966 | 7.14 | 0.0 | 0 | 0.00 | 0.00 | 0.00 | 0.00 |
| 05/04/26 3:08:22 AM | 30 | 0.0 | 11.0 | 51 | 77 | 68.1 | 54.6 | 29.967 | 7.14 | 0.0 | 0 | 0.00 | 0.00 | 0.00 | 0.00 |
| 05/04/26 3:09:35 AM | 31 | 0.0 | 11.0 | 51 | 77 | 68.1 | 54.6 | 29.964 | 7.14 | 0.0 | 0 | 0.00 | 0.00 | 0.00 | 0.00 |
| 05/04/26 3:10:27 AM | 36 | 0.0 | 11.0 | 51 | 77 | 68.1 | 54.6 | 29.968 | 7.14 | 0.0 | 0 | 0.00 | 0.00 | 0.00 | 0.00 |
| 05/04/26 3:11:22 AM | 38 | 0.0 | 11.0 | 51 | 77 | 68.1 | 54.6 | 29.966 | 7.14 | 0.0 | 0 | 0.00 | 0.00 | 0.00 | 0.00 |
| 05/04/26 3:12:31 AM | 38 | 1.0 | 11.0 | 51 | 77 | 68.1 | 54.6 | 29.964 | 7.14 | 0.0 | 0 | 0.00 | 0.00 | 0.00 | 0.00 |
| 05/04/26 3:13:23 AM | 37 | 2.0 | 11.0 | 51 | 77 | 68.1 | 54.6 | 29.964 | 7.14 | 0.0 | 0 | 0.00 | 0.00 | 0.00 | 0.00 |
| 05/04/26 3:14:30 AM | 36 | 3.0 | 11.0 | 51 | 77 | 68.1 | 54.6 | 29.966 | 7.14 | 0.0 | 0 | 0.00 | 0.00 | 0.00 | 0.00 |
| 05/04/26 3:15:25 AM | 37 | 3.0 | 11.0 | 51 | 77 | 68.1 | 54.6 | 29.967 | 7.14 | 0.0 | 0 | 0.00 | 0.00 | 0.00 | 0.00 |
| 05/04/26 3:16:34 AM | 37 | 3.0 | 11.0 | 51 | 77 | 68.1 | 54.6 | 29.970 | 7.14 | 0.0 | 0 | 0.00 | 0.00 | 0.00 | 0.00 |
| 05/04/26 3:17:26 AM | 37 | 2.0 | 11.0 | 51 | 77 | 68.1 | 54.6 | 29.967 | 7.14 | 0.0 | 0 | 0.00 | 0.00 | 0.00 | 0.00 |
| 05/04/26 3:18:18 AM | 37 | 3.0 | 11.0 | 51 | 77 | 68.0 | 54.6 | 29.966 | 7.14 | 0.0 | 0 | 0.00 | 0.00 | 0.00 | 0.00 |
| 05/04/26 3:19:25 AM | 36 | 2.0 | 11.0 | 51 | 77 | 68.0 | 54.6 | 29.967 | 7.14 | 0.0 | 0 | 0.00 | 0.00 | 0.00 | 0.00 |
| 05/04/26 3:20:19 AM | 36 | 3.0 | 11.0 | 51 | 77 | 68.0 | 54.6 | 29.965 | 7.14 | 0.0 | 0 | 0.00 | 0.00 | 0.00 | 0.00 |
| 05/04/26 3:21:29 AM | 35 | 3.0 | 11.0 | 51 | 77 | 68.0 | 54.6 | 29.966 | 7.14 | 0.0 | 0 | 0.00 | 0.00 | 0.00 | 0.00 |
| 05/04/26 3:22:21 AM | 36 | 2.0 | 11.0 | 51 | 77 | 68.0 | 54.6 | 29.966 | 7.14 | 0.0 | 0 | 0.00 | 0.00 | 0.00 | 0.00 |
| 05/04/26 3:23:34 AM | 37 | 1.0 | 11.0 | 51 | 77 | 68.0 | 54.6 | 29.966 | 7.14 | 0.0 | 0 | 0.00 | 0.00 | 0.00 | 0.00 |
| 05/04/26 3:24:23 AM | 38 | 1.0 | 11.0 | 51 | 77 | 67.9 | 54.6 | 29.969 | 7.14 | 0.0 | 0 | 0.00 | 0.00 | 0.00 | 0.00 |
| 05/04/26 3:25:32 AM | 35 | 1.0 | 11.0 | 51 | 77 | 68.0 | 54.6 | 29.968 | 7.14 | 0.0 | 0 | 0.00 | 0.00 | 0.00 | 0.00 |
| 05/04/26 3:26:27 AM | 36 | 1.0 | 11.0 | 51 | 77 | 67.9 | 54.6 | 29.968 | 7.14 | 0.0 | 0 | 0.00 | 0.00 | 0.00 | 0.00 |
| 05/04/26 3:27:16 AM | 35 | 2.0 | 11.0 | 51 | 77 | 67.9 | 54.6 | 29.968 | 7.14 | 0.0 | 0 | 0.00 | 0.00 | 0.00 | 0.00 |
| 05/04/26 3:28:29 AM | 38 | 2.0 | 11.0 | 51 | 77 | 67.9 | 54.6 | 29.967 | 7.14 | 0.0 | 0 | 0.00 | 0.00 | 0.00 | 0.00 |
| 05/04/26 3:29:20 AM | 32 | 2.0 | 11.0 | 51 | 77 | 67.9 | 54.6 | 29.963 | 7.14 | 0.0 | 0 | 0.00 | 0.00 | 0.00 | 0.00 |
| 05/04/26 3:30:30 AM | 38 | 2.0 | 11.0 | 51 | 77 | 67.9 | 54.6 | 29.960 | 7.14 | 0.0 | 0 | 0.00 | 0.00 | 0.00 | 0.00 |
| 05/04/26 3:31:19 AM | 35 | 2.0 | 11.0 | 51 | 77 | 68.0 | 54.6 | 29.961 | 7.14 | 0.0 | 0 | 0.00 | 0.00 | 0.00 | 0.00 |
| 05/04/26 3:32:32 AM | 38 | 1.0 | 11.0 | 51 | 77 | 67.9 | 54.5 | 29.962 | 7.14 | 0.0 | 0 | 0.00 | 0.00 | 0.00 | 0.00 |
| 05/04/26 3:33:23 AM | 37 | 1.0 | 11.0 | 51 | 77 | 68.0 | 54.6 | 29.963 | 7.14 | 0.0 | 0 | 0.00 | 0.00 | 0.00 | 0.00 |
| 05/04/26 3:34:36 AM | 37 | 0.0 | 11.0 | 51 | 77 | 68.0 | 54.6 | 29.967 | 7.14 | 0.0 | 0 | 0.00 | 0.00 | 0.00 | 0.00 |
| 05/04/26 3:35:22 AM | 38 | 0.0 | 11.0 | 51 | 77 | 68.0 | 54.6 | 29.969 | 7.14 | 0.0 | 0 | 0.00 | 0.00 | 0.00 | 0.00 |
| 05/04/26 3:36:35 AM | 35 | 0.0 | 11.0 | 51 | 77 | 68.0 | 54.6 | 29.970 | 7.14 | 0.0 | 0 | 0.00 | 0.00 | 0.00 | 0.00 |
| 05/04/26 3:37:27 AM | 40 | 0.0 | 11.0 | 51 | 77 | 67.9 | 54.6 | 29.971 | 7.14 | 0.0 | 0 | 0.00 | 0.00 | 0.00 | 0.00 |
| 05/04/26 3:38:18 AM | 31 | 0.0 | 11.0 | 51 | 77 | 67.9 | 54.6 | 29.968 | 7.14 | 0.0 | 0 | 0.00 | 0.00 | 0.00 | 0.00 |
| 05/04/26 3:39:31 AM | 34 | 0.0 | 11.0 | 51 | 77 | 68.0 | 54.6 | 29.968 | 7.14 | 0.0 | 0 | 0.00 | 0.00 | 0.00 | 0.00 |
| 05/04/26 3:40:20 AM | 37 | 0.0 | 11.0 | 51 | 77 | 68.0 | 54.6 | 29.967 | 7.14 | 0.0 | 0 | 0.00 | 0.00 | 0.00 | 0.00 |
| 05/04/26 3:41:33 AM | 34 | 0.0 | 11.0 | 51 | 77 | 68.1 | 54.6 | 29.966 | 7.14 | 0.0 | 0 | 0.00 | 0.00 | 0.00 | 0.00 |
| 05/04/26 3:42:24 AM | 38 | 0.0 | 11.0 | 51 | 77 | 68.0 | 54.6 | 29.968 | 7.14 | 0.0 | 0 | 0.00 | 0.00 | 0.00 | 0.00 |
| 05/04/26 3:43:34 AM | 34 | 0.0 | 11.0 | 51 | 77 | 68.0 | 54.5 | 29.965 | 7.14 | 0.0 | 0 | 0.00 | 0.00 | 0.00 | 0.00 |
| 05/04/26 3:44:29 AM | 38 | 0.0 | 11.0 | 51 | 77 | 68.0 | 54.6 | 29.967 | 7.14 | 0.0 | 0 | 0.00 | 0.00 | 0.00 | 0.00 |
| 05/04/26 3:45:42 AM | 37 | 0.0 | 11.0 | 51 | 77 | 68.0 | 54.6 | 29.969 | 7.14 | 0.0 | 0 | 0.00 | 0.00 | 0.00 | 0.00 |
| 05/04/26 3:46:28 AM | 32 | 0.0 | 11.0 | 51 | 77 | 68.0 | 54.6 | 29.970 | 7.14 | 0.0 | 0 | 0.00 | 0.00 | 0.00 | 0.00 |
| 05/04/26 3:47:19 AM | 38 | 0.0 | 11.0 | 51 | 77 | 68.0 | 54.6 | 29.969 | 7.14 | 0.0 | 0 | 0.00 | 0.00 | 0.00 | 0.00 |
| 05/04/26 3:48:32 AM | 32 | 0.0 | 11.0 | 51 | 77 | 68.0 | 54.6 | 29.968 | 7.14 | 0.0 | 0 | 0.00 | 0.00 | 0.00 | 0.00 |
| 05/04/26 3:49:24 AM | 39 | 1.0 | 11.0 | 51 | 77 | 68.0 | 54.6 | 29.965 | 7.14 | 0.0 | 0 | 0.00 | 0.00 | 0.00 | 0.00 |
| 05/04/26 3:50:16 AM | 31 | 2.0 | 11.0 | 51 | 77 | 68.0 | 54.6 | 29.961 | 7.14 | 0.0 | 0 | 0.00 | 0.00 | 0.00 | 0.00 |
| 05/04/26 3:51:26 AM | 30 | 2.0 | 11.0 | 51 | 77 | 68.0 | 54.6 | 29.962 | 7.14 | 0.0 | 0 | 0.00 | 0.00 | 0.00 | 0.00 |
| 05/04/26 3:52:17 AM | 37 | 1.0 | 11.0 | 51 | 77 | 68.0 | 54.6 | 29.965 | 7.14 | 0.0 | 0 | 0.00 | 0.00 | 0.00 | 0.00 |
| 05/04/26 3:53:27 AM | 34 | 0.0 | 11.0 | 51 | 77 | 68.0 | 54.6 | 29.968 | 7.14 | 0.0 | 0 | 0.00 | 0.00 | 0.00 | 0.00 |
| 05/04/26 3:54:22 AM | 37 | 1.0 | 11.0 | 51 | 77 | 68.0 | 54.6 | 29.968 | 7.14 | 0.0 | 0 | 0.00 | 0.00 | 0.00 | 0.00 |
| 05/04/26 3:55:32 AM | 34 | 1.0 | 11.0 | 51 | 77 | 68.0 | 54.6 | 29.966 | 7.14 | 0.0 | 0 | 0.00 | 0.00 | 0.00 | 0.00 |
| 05/04/26 3:56:27 AM | 38 | 2.0 | 11.0 | 51 | 77 | 67.9 | 54.6 | 29.964 | 7.14 | 0.0 | 0 | 0.00 | 0.00 | 0.00 | 0.00 |
| 05/04/26 3:57:34 AM | 36 | 2.0 | 11.0 | 51 | 77 | 67.9 | 54.6 | 29.965 | 7.14 | 0.0 | 0 | 0.00 | 0.00 | 0.00 | 0.00 |
| 05/04/26 3:58:25 AM | 37 | 2.0 | 11.0 | 51 | 77 | 68.0 | 54.6 | 29.967 | 7.14 | 0.0 | 0 | 0.00 | 0.00 | 0.00 | 0.00 |
| 05/04/26 3:59:20 AM | 34 | 2.0 | 11.0 | 51 | 77 | 68.0 | 54.6 | 29.965 | 7.14 | 0.0 | 0 | 0.00 | 0.00 | 0.00 | 0.00 |
| 05/04/26 4:00:51 AM | 36 | 4.0 | 11.0 | 51 | 77 | 68.0 | 54.5 | 29.967 | 7.14 | 0.0 | 0 | 0.00 | 0.00 | 0.00 | 0.00 |
| 05/04/26 4:01:22 AM | 39 | 3.0 | 11.0 | 51 | 77 | 68.0 | 54.5 | 29.971 | 7.14 | 0.0 | 0 | 0.00 | 0.00 | 0.00 | 0.00 |
| 05/04/26 4:02:29 AM | 38 | 3.0 | 11.0 | 51 | 77 | 68.0 | 54.6 | 29.971 | 7.14 | 0.0 | 0 | 0.00 | 0.00 | 0.00 | 0.00 |
| 05/04/26 4:03:23 AM | 32 | 4.0 | 11.0 | 51 | 77 | 68.0 | 54.5 | 29.973 | 7.14 | 0.0 | 0 | 0.00 | 0.00 | 0.00 | 0.00 |
| 05/04/26 4:04:33 AM | 35 | 3.0 | 11.0 | 51 | 77 | 68.0 | 54.5 | 29.974 | 7.14 | 0.0 | 0 | 0.00 | 0.00 | 0.00 | 0.00 |
| 05/04/26 4:05:25 AM | 34 | 3.0 | 11.0 | 51 | 77 | 68.0 | 54.5 | 29.975 | 7.14 | 0.0 | 0 | 0.00 | 0.00 | 0.00 | 0.00 |
| 05/04/26 4:06:20 AM | 39 | 3.0 | 11.0 | 51 | 77 | 68.0 | 54.5 | 29.975 | 7.14 | 0.0 | 0 | 0.00 | 0.00 | 0.00 | 0.00 |
| 05/04/26 4:07:32 AM | 35 | 3.0 | 11.0 | 51 | 77 | 68.0 | 54.5 | 29.971 | 7.14 | 0.0 | 0 | 0.00 | 0.00 | 0.00 | 0.00 |
| 05/04/26 4:08:21 AM | 38 | 4.0 | 11.0 | 51 | 77 | 68.0 | 54.5 | 29.971 | 7.14 | 0.0 | 0 | 0.00 | 0.00 | 0.00 | 0.00 |
| 05/04/26 4:09:22 AM | 38 | 3.0 | 11.0 | 51 | 77 | 68.0 | 54.5 | 29.970 | 7.14 | 0.0 | 0 | 0.00 | 0.00 | 0.00 | 0.00 |
| 05/04/26 4:10:35 AM | 35 | 2.0 | 11.0 | 51 | 77 | 68.0 | 54.5 | 29.968 | 7.14 | 0.0 | 0 | 0.00 | 0.00 | 0.00 | 0.00 |
| 05/04/26 4:11:27 AM | 32 | 2.0 | 11.0 | 51 | 77 | 68.0 | 54.5 | 29.969 | 7.14 | 0.0 | 0 | 0.00 | 0.00 | 0.00 | 0.00 |
| 05/04/26 4:12:19 AM | 35 | 2.0 | 11.0 | 51 | 77 | 68.0 | 54.5 | 29.968 | 7.14 | 0.0 | 0 | 0.00 | 0.00 | 0.00 | 0.00 |
| 05/04/26 4:13:28 AM | 36 | 3.0 | 11.0 | 51 | 77 | 68.1 | 54.5 | 29.969 | 7.14 | 0.0 | 0 | 0.00 | 0.00 | 0.00 | 0.00 |
| 05/04/26 4:14:20 AM | 36 | 3.0 | 11.0 | 51 | 77 | 68.0 | 54.5 | 29.972 | 7.14 | 0.0 | 0 | 0.00 | 0.00 | 0.00 | 0.00 |
| 05/04/26 4:15:54 AM | 36 | 3.0 | 11.0 | 51 | 77 | 68.0 | 54.4 | 29.972 | 7.14 | 0.0 | 0 | 0.00 | 0.00 | 0.00 | 0.00 |
| 05/04/26 4:16:25 AM | 36 | 3.0 | 11.0 | 51 | 77 | 68.0 | 54.4 | 29.972 | 7.14 | 0.0 | 0 | 0.00 | 0.00 | 0.00 | 0.00 |
| 05/04/26 4:17:35 AM | 32 | 2.0 | 11.0 | 51 | 77 | 68.0 | 54.4 | 29.970 | 7.14 | 0.0 | 0 | 0.00 | 0.00 | 0.00 | 0.00 |
| 05/04/26 4:18:30 AM | 36 | 2.0 | 11.0 | 51 | 77 | 68.1 | 54.4 | 29.968 | 7.14 | 0.0 | 0 | 0.00 | 0.00 | 0.00 | 0.00 |
| 05/04/26 4:19:36 AM | 34 | 2.0 | 11.0 | 51 | 77 | 68.0 | 54.4 | 29.969 | 7.14 | 0.0 | 0 | 0.00 | 0.00 | 0.00 | 0.00 |
| 05/04/26 4:20:28 AM | 35 | 2.0 | 11.0 | 51 | 77 | 68.0 | 54.4 | 29.968 | 7.14 | 0.0 | 0 | 0.00 | 0.00 | 0.00 | 0.00 |
| 05/04/26 4:21:23 AM | 37 | 2.0 | 11.0 | 51 | 77 | 68.0 | 54.4 | 29.971 | 7.14 | 0.0 | 0 | 0.00 | 0.00 | 0.00 | 0.00 |
| 05/04/26 4:22:33 AM | 35 | 1.0 | 11.0 | 51 | 77 | 68.0 | 54.4 | 29.970 | 7.14 | 0.0 | 0 | 0.00 | 0.00 | 0.00 | 0.00 |
| 05/04/26 4:23:25 AM | 32 | 3.0 | 11.0 | 51 | 77 | 68.0 | 54.4 | 29.970 | 7.14 | 0.0 | 0 | 0.00 | 0.00 | 0.00 | 0.00 |
| 05/04/26 4:24:31 AM | 35 | 1.0 | 11.0 | 51 | 77 | 68.0 | 54.4 | 29.970 | 7.14 | 0.0 | 0 | 0.00 | 0.00 | 0.00 | 0.00 |
| 05/04/26 4:25:23 AM | 39 | 1.0 | 11.0 | 51 | 77 | 68.0 | 54.4 | 29.972 | 7.14 | 0.0 | 0 | 0.00 | 0.00 | 0.00 | 0.00 |
| 05/04/26 4:26:36 AM | 36 | 3.0 | 11.0 | 51 | 77 | 68.1 | 54.4 | 29.972 | 7.14 | 0.0 | 0 | 0.00 | 0.00 | 0.00 | 0.00 |
| 05/04/26 4:27:28 AM | 38 | 2.0 | 11.0 | 51 | 77 | 68.0 | 54.4 | 29.970 | 7.14 | 0.0 | 0 | 0.00 | 0.00 | 0.00 | 0.00 |
| 05/04/26 4:28:19 AM | 37 | 1.0 | 11.0 | 51 | 77 | 68.1 | 54.4 | 29.972 | 7.14 | 0.0 | 0 | 0.00 | 0.00 | 0.00 | 0.00 |
| 05/04/26 4:29:32 AM | 38 | 2.0 | 11.0 | 51 | 77 | 68.1 | 54.4 | 29.970 | 7.14 | 0.0 | 0 | 0.00 | 0.00 | 0.00 | 0.00 |
| 05/04/26 4:30:45 AM | 38 | 1.0 | 11.0 | 51 | 77 | 68.0 | 54.4 | 29.970 | 7.14 | 0.0 | 0 | 0.00 | 0.00 | 0.00 | 0.00 |
| 05/04/26 4:31:34 AM | 35 | 1.0 | 11.0 | 51 | 77 | 68.0 | 54.4 | 29.971 | 7.14 | 0.0 | 0 | 0.00 | 0.00 | 0.00 | 0.00 |
| 05/04/26 4:32:26 AM | 36 | 0.0 | 11.0 | 51 | 77 | 68.0 | 54.4 | 29.973 | 7.14 | 0.0 | 0 | 0.00 | 0.00 | 0.00 | 0.00 |
| 05/04/26 4:33:17 AM | 38 | 0.0 | 11.0 | 51 | 77 | 68.0 | 54.4 | 29.972 | 7.14 | 0.0 | 0 | 0.00 | 0.00 | 0.00 | 0.00 |
| 05/04/26 4:34:30 AM | 36 | 0.0 | 11.0 | 51 | 77 | 68.1 | 54.4 | 29.973 | 7.14 | 0.0 | 0 | 0.00 | 0.00 | 0.00 | 0.00 |
| 05/04/26 4:35:22 AM | 31 | 0.0 | 11.0 | 51 | 77 | 68.0 | 54.4 | 29.970 | 7.14 | 0.0 | 0 | 0.00 | 0.00 | 0.00 | 0.00 |
| 05/04/26 4:36:32 AM | 36 | 0.0 | 11.0 | 51 | 77 | 68.1 | 54.4 | 29.969 | 7.14 | 0.0 | 0 | 0.00 | 0.00 | 0.00 | 0.00 |
| 05/04/26 4:37:24 AM | 38 | 0.0 | 11.0 | 51 | 77 | 68.0 | 54.4 | 29.968 | 7.14 | 0.0 | 0 | 0.00 | 0.00 | 0.00 | 0.00 |
| 05/04/26 4:38:37 AM | 38 | 0.0 | 11.0 | 51 | 77 | 68.0 | 54.4 | 29.969 | 7.14 | 0.0 | 0 | 0.00 | 0.00 | 0.00 | 0.00 |
| 05/04/26 4:39:28 AM | 35 | 0.0 | 11.0 | 51 | 77 | 68.1 | 54.4 | 29.970 | 7.14 | 0.0 | 0 | 0.00 | 0.00 | 0.00 | 0.00 |
| 05/04/26 4:40:20 AM | 36 | 0.0 | 11.0 | 51 | 77 | 68.0 | 54.4 | 29.967 | 7.14 | 0.0 | 0 | 0.00 | 0.00 | 0.00 | 0.00 |
| 05/04/26 4:41:27 AM | 38 | 0.0 | 11.0 | 51 | 77 | 68.1 | 54.4 | 29.970 | 7.14 | 0.0 | 0 | 0.00 | 0.00 | 0.00 | 0.00 |
| 05/04/26 4:42:19 AM | 38 | 0.0 | 11.0 | 51 | 77 | 68.1 | 54.4 | 29.970 | 7.14 | 0.0 | 0 | 0.00 | 0.00 | 0.00 | 0.00 |
| 05/04/26 4:43:29 AM | 35 | 0.0 | 11.0 | 51 | 77 | 68.1 | 54.4 | 29.969 | 7.14 | 0.0 | 0 | 0.00 | 0.00 | 0.00 | 0.00 |
| 05/04/26 4:44:21 AM | 39 | 0.0 | 11.0 | 51 | 77 | 68.1 | 54.4 | 29.970 | 7.14 | 0.0 | 0 | 0.00 | 0.00 | 0.00 | 0.00 |
| 05/04/26 4:45:36 AM | 32 | 0.0 | 11.0 | 51 | 77 | 68.0 | 54.4 | 29.973 | 7.14 | 0.0 | 0 | 0.00 | 0.00 | 0.00 | 0.00 |
| 05/04/26 4:46:22 AM | 31 | 0.0 | 11.0 | 51 | 77 | 68.0 | 54.4 | 29.975 | 7.14 | 0.0 | 0 | 0.00 | 0.00 | 0.00 | 0.00 |
| 05/04/26 4:47:35 AM | 31 | 0.0 | 11.0 | 51 | 78 | 68.0 | 54.4 | 29.976 | 7.14 | 0.0 | 0 | 0.00 | 0.00 | 0.00 | 0.00 |
| 05/04/26 4:48:27 AM | 35 | 0.0 | 11.0 | 51 | 78 | 68.0 | 54.3 | 29.976 | 7.14 | 0.0 | 0 | 0.00 | 0.00 | 0.00 | 0.00 |
| 05/04/26 4:49:19 AM | 38 | 0.0 | 11.0 | 51 | 78 | 68.1 | 54.3 | 29.976 | 7.14 | 0.0 | 0 | 0.00 | 0.00 | 0.00 | 0.00 |
| 05/04/26 4:50:32 AM | 38 | 0.0 | 11.0 | 51 | 78 | 68.0 | 54.3 | 29.974 | 7.14 | 0.0 | 0 | 0.00 | 0.00 | 0.00 | 0.00 |
| 05/04/26 4:51:23 AM | 36 | 0.0 | 11.0 | 51 | 78 | 68.1 | 54.3 | 29.973 | 7.14 | 0.0 | 0 | 0.00 | 0.00 | 0.00 | 0.00 |
| 05/04/26 4:52:30 AM | 36 | 3.0 | 11.0 | 51 | 78 | 68.1 | 54.3 | 29.972 | 7.14 | 0.0 | 0 | 0.00 | 0.00 | 0.00 | 0.00 |
| 05/04/26 4:53:22 AM | 32 | 3.0 | 11.0 | 51 | 78 | 68.0 | 54.3 | 29.971 | 7.14 | 0.0 | 0 | 0.00 | 0.00 | 0.00 | 0.00 |
| 05/04/26 4:54:35 AM | 34 | 3.0 | 11.0 | 51 | 78 | 68.1 | 54.3 | 29.970 | 7.14 | 0.0 | 0 | 0.00 | 0.00 | 0.00 | 0.00 |
| 05/04/26 4:55:24 AM | 34 | 2.0 | 11.0 | 51 | 78 | 68.0 | 54.3 | 29.971 | 7.14 | 0.0 | 0 | 0.00 | 0.00 | 0.00 | 0.00 |
| 05/04/26 4:56:36 AM | 36 | 2.0 | 11.0 | 51 | 78 | 68.1 | 54.3 | 29.974 | 7.14 | 0.0 | 0 | 0.00 | 0.00 | 0.00 | 0.00 |
| 05/04/26 4:57:22 AM | 37 | 3.0 | 11.0 | 51 | 78 | 68.1 | 54.3 | 29.972 | 7.14 | 0.0 | 0 | 0.00 | 0.00 | 0.00 | 0.00 |
| 05/04/26 4:58:35 AM | 35 | 2.0 | 11.0 | 51 | 78 | 68.1 | 54.3 | 29.975 | 7.14 | 0.0 | 0 | 0.00 | 0.00 | 0.00 | 0.00 |
| 05/04/26 4:59:27 AM | 36 | 3.0 | 11.0 | 51 | 78 | 68.0 | 54.3 | 29.976 | 7.14 | 0.0 | 0 | 0.00 | 0.00 | 0.00 | 0.00 |
| 05/04/26 5:00:40 AM | 35 | 2.0 | 11.0 | 51 | 78 | 68.1 | 54.3 | 29.976 | 7.14 | 0.0 | 0 | 0.00 | 0.00 | 0.00 | 0.00 |
| 05/04/26 5:01:31 AM | 36 | 2.0 | 11.0 | 51 | 78 | 68.1 | 54.3 | 29.978 | 7.14 | 0.0 | 0 | 0.00 | 0.00 | 0.00 | 0.00 |
| 05/04/26 5:02:23 AM | 38 | 3.0 | 11.0 | 51 | 78 | 68.0 | 54.3 | 29.975 | 7.14 | 0.0 | 0 | 0.00 | 0.00 | 0.00 | 0.00 |
| 05/04/26 5:03:33 AM | 35 | 2.0 | 11.0 | 51 | 78 | 68.0 | 54.2 | 29.975 | 7.14 | 0.0 | 0 | 0.00 | 0.00 | 0.00 | 0.00 |
| 05/04/26 5:04:22 AM | 38 | 1.0 | 11.0 | 51 | 78 | 68.1 | 54.3 | 29.969 | 7.14 | 0.0 | 0 | 0.00 | 0.00 | 0.00 | 0.00 |
| 05/04/26 5:05:35 AM | 36 | 1.0 | 11.0 | 51 | 78 | 68.0 | 54.3 | 29.969 | 7.14 | 0.0 | 0 | 0.00 | 0.00 | 0.00 | 0.00 |
| 05/04/26 5:06:27 AM | 32 | 2.0 | 11.0 | 51 | 78 | 68.0 | 54.3 | 29.968 | 7.14 | 0.0 | 0 | 0.00 | 0.00 | 0.00 | 0.00 |
| 05/04/26 5:07:18 AM | 38 | 1.0 | 11.0 | 51 | 78 | 67.9 | 54.2 | 29.967 | 7.14 | 0.0 | 0 | 0.00 | 0.00 | 0.00 | 0.00 |
| 05/04/26 5:08:28 AM | 38 | 2.0 | 11.0 | 51 | 78 | 67.9 | 54.2 | 29.970 | 7.14 | 0.0 | 0 | 0.00 | 0.00 | 0.00 | 0.00 |
| 05/04/26 5:09:20 AM | 36 | 2.0 | 11.0 | 51 | 78 | 67.8 | 54.2 | 29.971 | 7.14 | 0.0 | 0 | 0.00 | 0.00 | 0.00 | 0.00 |
| 05/04/26 5:10:30 AM | 38 | 3.0 | 11.0 | 51 | 78 | 67.7 | 54.2 | 29.970 | 7.14 | 0.0 | 0 | 0.00 | 0.00 | 0.00 | 0.00 |
| 05/04/26 5:11:22 AM | 37 | 4.0 | 11.0 | 51 | 78 | 67.7 | 54.2 | 29.971 | 7.14 | 0.0 | 0 | 0.00 | 0.00 | 0.00 | 0.00 |
| 05/04/26 5:12:32 AM | 38 | 4.0 | 11.0 | 51 | 78 | 67.6 | 54.2 | 29.975 | 7.14 | 0.0 | 0 | 0.00 | 0.00 | 0.00 | 0.00 |
| 05/04/26 5:13:20 AM | 36 | 3.0 | 11.0 | 51 | 78 | 67.5 | 54.2 | 29.972 | 7.14 | 0.0 | 0 | 0.00 | 0.00 | 0.00 | 0.00 |
| 05/04/26 5:14:33 AM | 35 | 3.0 | 11.0 | 51 | 78 | 67.5 | 54.2 | 29.973 | 7.14 | 0.0 | 0 | 0.00 | 0.00 | 0.00 | 0.00 |
| 05/04/26 5:15:28 AM | 38 | 2.0 | 11.0 | 51 | 78 | 67.4 | 54.2 | 29.973 | 7.14 | 0.0 | 0 | 0.00 | 0.00 | 0.00 | 0.00 |
| 05/04/26 5:16:17 AM | 31 | 2.0 | 11.0 | 51 | 78 | 67.2 | 54.2 | 29.974 | 7.14 | 0.0 | 0 | 0.00 | 0.00 | 0.00 | 0.00 |
| 05/04/26 5:17:30 AM | 31 | 1.0 | 11.0 | 51 | 78 | 67.2 | 54.2 | 29.974 | 7.14 | 0.0 | 0 | 0.00 | 0.00 | 0.00 | 0.00 |
| 05/04/26 5:18:22 AM | 38 | 2.0 | 11.0 | 51 | 78 | 67.1 | 54.2 | 29.973 | 7.14 | 0.0 | 0 | 0.00 | 0.00 | 0.00 | 0.00 |
| 05/04/26 5:19:32 AM | 34 | 2.0 | 11.0 | 51 | 78 | 67.0 | 54.2 | 29.976 | 7.14 | 0.0 | 0 | 0.00 | 0.00 | 0.00 | 0.00 |
| 05/04/26 5:20:24 AM | 36 | 2.0 | 11.0 | 51 | 78 | 66.9 | 54.2 | 29.975 | 7.14 | 0.0 | 0 | 0.00 | 0.00 | 0.00 | 0.00 |
| 05/04/26 5:21:33 AM | 36 | 3.0 | 11.0 | 51 | 78 | 66.8 | 54.2 | 29.976 | 7.14 | 0.0 | 0 | 0.00 | 0.00 | 0.00 | 0.00 |
| 05/04/26 5:22:25 AM | 36 | 3.0 | 11.0 | 51 | 78 | 66.6 | 54.2 | 29.974 | 7.14 | 0.0 | 0 | 0.00 | 0.00 | 0.00 | 0.00 |
| 05/04/26 5:23:17 AM | 34 | 4.0 | 11.0 | 51 | 78 | 66.6 | 54.2 | 29.974 | 7.14 | 0.0 | 0 | 0.00 | 0.00 | 0.00 | 0.00 |
| 05/04/26 5:24:24 AM | 35 | 3.0 | 11.0 | 51 | 78 | 66.5 | 54.2 | 29.976 | 7.14 | 0.0 | 0 | 0.00 | 0.00 | 0.00 | 0.00 |
| 05/04/26 5:25:19 AM | 36 | 5.0 | 11.0 | 51 | 78 | 66.4 | 54.2 | 29.975 | 7.14 | 0.0 | 0 | 0.00 | 0.00 | 0.00 | 0.00 |
| 05/04/26 5:26:29 AM | 35 | 2.0 | 11.0 | 51 | 78 | 66.4 | 54.2 | 29.978 | 7.14 | 0.0 | 0 | 0.00 | 0.00 | 0.00 | 0.00 |
| 05/04/26 5:27:21 AM | 37 | 3.0 | 11.0 | 51 | 78 | 66.3 | 54.2 | 29.975 | 7.14 | 0.0 | 0 | 0.00 | 0.00 | 0.00 | 0.00 |
| 05/04/26 5:28:33 AM | 37 | 4.0 | 11.0 | 51 | 78 | 66.2 | 54.2 | 29.974 | 7.14 | 0.0 | 0 | 0.00 | 0.00 | 0.00 | 0.00 |
| 05/04/26 5:29:22 AM | 36 | 5.0 | 11.0 | 51 | 78 | 66.2 | 54.2 | 29.973 | 7.14 | 0.0 | 0 | 0.00 | 0.00 | 0.00 | 0.00 |
| 05/04/26 5:30:35 AM | 37 | 6.0 | 11.0 | 51 | 78 | 66.1 | 54.2 | 29.974 | 7.14 | 0.0 | 0 | 0.00 | 0.00 | 0.00 | 0.00 |
| 05/04/26 5:31:27 AM | 36 | 3.0 | 11.0 | 51 | 78 | 66.1 | 54.2 | 29.975 | 7.14 | 0.0 | 0 | 0.00 | 0.00 | 0.00 | 0.00 |
| 05/04/26 5:32:19 AM | 35 | 4.0 | 11.0 | 52 | 78 | 66.0 | 54.2 | 29.978 | 7.14 | 0.0 | 0 | 0.00 | 0.00 | 0.00 | 0.00 |
| 05/04/26 5:33:29 AM | 36 | 4.0 | 11.0 | 52 | 78 | 66.0 | 54.2 | 29.978 | 7.14 | 0.0 | 0 | 0.00 | 0.00 | 0.00 | 0.00 |
| 05/04/26 5:34:23 AM | 35 | 3.0 | 11.0 | 52 | 78 | 65.9 | 54.2 | 29.977 | 7.14 | 0.0 | 0 | 0.00 | 0.00 | 0.00 | 0.00 |
| 05/04/26 5:35:30 AM | 38 | 2.0 | 11.0 | 52 | 78 | 65.9 | 54.2 | 29.978 | 7.14 | 0.0 | 0 | 0.00 | 0.00 | 0.00 | 0.00 |
| 05/04/26 5:36:22 AM | 36 | 3.0 | 11.0 | 52 | 79 | 65.8 | 54.2 | 29.977 | 7.14 | 0.0 | 0 | 0.00 | 0.00 | 0.00 | 0.00 |
| 05/04/26 5:37:32 AM | 32 | 3.0 | 11.0 | 52 | 79 | 65.7 | 54.2 | 29.978 | 7.14 | 0.0 | 0 | 0.00 | 0.00 | 0.00 | 0.00 |
| 05/04/26 5:38:27 AM | 38 | 3.0 | 11.0 | 52 | 79 | 65.7 | 54.2 | 29.978 | 7.14 | 0.0 | 0 | 0.00 | 0.00 | 0.00 | 0.00 |
| 05/04/26 5:39:19 AM | 35 | 5.0 | 11.0 | 52 | 79 | 65.6 | 54.2 | 29.975 | 7.14 | 0.0 | 0 | 0.00 | 0.00 | 0.00 | 0.00 |
| 05/04/26 5:40:26 AM | 36 | 3.0 | 11.0 | 52 | 79 | 65.6 | 54.2 | 29.975 | 7.14 | 0.0 | 0 | 0.00 | 0.00 | 0.00 | 0.00 |
| 05/04/26 5:41:17 AM | 38 | 4.0 | 11.0 | 52 | 79 | 65.6 | 54.2 | 29.976 | 7.14 | 0.0 | 0 | 0.00 | 0.00 | 0.00 | 0.00 |
| 05/04/26 5:42:30 AM | 36 | 4.0 | 11.0 | 52 | 79 | 65.5 | 54.2 | 29.979 | 7.14 | 0.0 | 0 | 0.00 | 0.00 | 0.00 | 0.00 |
| 05/04/26 5:43:22 AM | 35 | 3.0 | 11.0 | 52 | 79 | 65.5 | 54.2 | 29.981 | 7.14 | 0.0 | 0 | 0.00 | 0.00 | 0.00 | 0.00 |
| 05/04/26 5:44:32 AM | 36 | 4.0 | 11.0 | 52 | 79 | 65.5 | 54.2 | 29.983 | 7.14 | 0.0 | 0 | 0.00 | 0.00 | 0.00 | 0.00 |
| 05/04/26 5:45:24 AM | 32 | 3.0 | 11.0 | 53 | 79 | 65.4 | 54.2 | 29.983 | 7.14 | 0.0 | 0 | 0.00 | 0.00 | 0.00 | 0.00 |
| 05/04/26 5:46:34 AM | 35 | 4.0 | 11.0 | 53 | 79 | 65.4 | 54.2 | 29.985 | 7.14 | 0.0 | 0 | 0.00 | 0.00 | 0.00 | 0.00 |
| 05/04/26 5:47:26 AM | 38 | 4.0 | 11.0 | 53 | 79 | 65.3 | 54.2 | 29.984 | 7.14 | 0.0 | 0 | 0.00 | 0.00 | 0.00 | 0.00 |
| 05/04/26 5:48:17 AM | 36 | 2.0 | 11.0 | 53 | 79 | 65.3 | 54.2 | 29.982 | 7.14 | 0.0 | 0 | 0.00 | 0.00 | 0.00 | 0.00 |
| 05/04/26 5:49:30 AM | 32 | 4.0 | 11.0 | 53 | 79 | 65.2 | 54.1 | 29.982 | 7.14 | 0.0 | 0 | 0.00 | 0.00 | 0.00 | 0.00 |
| 05/04/26 5:50:22 AM | 35 | 4.0 | 11.0 | 53 | 79 | 65.2 | 54.1 | 29.982 | 7.14 | 0.0 | 0 | 0.00 | 0.00 | 0.00 | 0.00 |
| 05/04/26 5:51:29 AM | 38 | 5.0 | 11.0 | 53 | 79 | 65.2 | 54.1 | 29.984 | 7.14 | 0.0 | 0 | 0.00 | 0.00 | 0.00 | 0.00 |
| 05/04/26 5:52:21 AM | 36 | 4.0 | 11.0 | 53 | 79 | 65.2 | 54.1 | 29.984 | 7.14 | 0.0 | 0 | 0.00 | 0.00 | 0.00 | 0.00 |
| 05/04/26 5:53:34 AM | 38 | 3.0 | 11.0 | 53 | 80 | 65.2 | 54.1 | 29.984 | 7.14 | 0.0 | 0 | 0.00 | 0.00 | 0.00 | 0.00 |
| 05/04/26 5:54:25 AM | 38 | 3.0 | 11.0 | 53 | 80 | 65.1 | 54.1 | 29.985 | 7.14 | 0.0 | 0 | 0.00 | 0.00 | 0.00 | 0.00 |
| 05/04/26 5:55:17 AM | 35 | 3.0 | 11.0 | 53 | 80 | 65.1 | 54.1 | 29.982 | 7.14 | 0.0 | 0 | 0.00 | 0.00 | 0.00 | 0.00 |
| 05/04/26 5:56:24 AM | 38 | 3.0 | 11.0 | 53 | 80 | 65.1 | 54.0 | 29.981 | 7.14 | 0.0 | 0 | 0.00 | 0.00 | 0.00 | 0.00 |
| 05/04/26 5:57:16 AM | 32 | 3.0 | 11.0 | 53 | 80 | 65.0 | 54.0 | 29.982 | 7.14 | 0.0 | 0 | 0.00 | 0.00 | 0.00 | 0.00 |
| 05/04/26 5:58:29 AM | 39 | 4.0 | 11.0 | 53 | 80 | 65.0 | 54.0 | 29.981 | 7.14 | 0.0 | 0 | 0.00 | 0.00 | 0.00 | 0.00 |
| 05/04/26 5:59:21 AM | 31 | 3.0 | 11.0 | 53 | 80 | 64.9 | 54.0 | 29.982 | 7.14 | 0.0 | 0 | 0.00 | 0.00 | 0.00 | 0.00 |
| 05/04/26 6:00:34 AM | 34 | 3.0 | 11.0 | 53 | 80 | 64.9 | 54.0 | 29.981 | 7.14 | 0.0 | 0 | 0.00 | 0.00 | 0.00 | 0.00 |
| 05/04/26 6:01:22 AM | 38 | 3.0 | 11.0 | 54 | 80 | 64.9 | 54.0 | 29.981 | 7.14 | 0.0 | 0 | 0.00 | 0.00 | 0.00 | 0.00 |
University Police wind advisory reference
For campus closure information please call the campus Emergency Hotline at (909) 537-5999
© All rights reserved. Unauthorized duplication or distribution is prohibited
Never base important decisions on this or any weather information obtained from the Internet
California State University, San Bernardino
5500 University Parkway, San Bernardino, CA. 92407
Phone: (909) 537-5108, Email: Weather Webmaster
Last Updated: